TimeEDT,TemperatureF,Dew PointF,Humidity,Sea Level PressureIn,VisibilityMPH,Wind Direction,Wind SpeedMPH,Gust SpeedMPH,PrecipitationIn,Events,Conditions,WindDirDegrees,DateUTC
12:53 AM,48.9,46.9,93,30.04,10.0,ENE,3.5,-,N/A,,Clear,70,2013-09-26 04:53:00
1:19 AM,48.2,46.4,93,30.04,1.8,ENE,3.5,-,N/A,,Clear,70,2013-09-26 05:19:00
1:32 AM,48.2,46.4,93,30.04,3.0,Calm,Calm,-,N/A,,Clear,0,2013-09-26 05:32:00
1:40 AM,48.2,48.2,100,30.04,1.8,Calm,Calm,-,N/A,,Clear,0,2013-09-26 05:40:00
1:48 AM,48.2,48.2,100,30.04,0.5,Calm,Calm,-,N/A,Fog,Fog,0,2013-09-26 05:48:00
1:49 AM,48.9,48.0,97,30.05,0.5,Calm,Calm,-,N/A,Fog,Fog,0,2013-09-26 05:49:00
2:02 AM,48.2,48.2,100,30.05,0.2,North,3.5,-,N/A,Fog,Fog,10,2013-09-26 06:02:00
2:15 AM,46.4,46.4,100,30.05,0.5,NNE,3.5,-,N/A,Fog,Fog,20,2013-09-26 06:15:00
2:23 AM,46.4,46.4,100,30.05,1.0,NNE,4.6,-,N/A,,Clear,30,2013-09-26 06:23:00
2:30 AM,46.4,44.6,93,30.05,3.0,NNE,4.6,-,N/A,,Clear,30,2013-09-26 06:30:00
2:34 AM,44.6,44.6,100,30.05,1.5,NNE,5.8,-,N/A,,Partly Cloudy,30,2013-09-26 06:34:00
2:36 AM,44.6,44.6,100,30.05,0.8,NNE,5.8,-,N/A,,Mist,30,2013-09-26 06:36:00
2:46 AM,44.6,42.8,93,30.05,0.2,North,3.5,-,N/A,Fog,Fog,10,2013-09-26 06:46:00
2:53 AM,43.0,42.1,97,30.06,0.2,Calm,Calm,-,N/A,Fog,Fog,0,2013-09-26 06:53:00
3:00 AM,44.6,42.8,93,30.05,0.8,Calm,Calm,-,N/A,,Mist,0,2013-09-26 07:00:00
3:07 AM,44.6,42.8,93,30.05,0.8,NNW,5.8,-,N/A,,Mist,340,2013-09-26 07:07:00
3:39 AM,44.6,42.8,93,30.06,2.0,North,4.6,-,N/A,,Mostly Cloudy,350,2013-09-26 07:39:00
3:46 AM,44.6,42.8,93,30.06,0.8,NNW,5.8,-,N/A,,Mist,340,2013-09-26 07:46:00
3:53 AM,44.1,43.0,96,30.06,0.2,North,5.8,-,N/A,Fog,Fog,350,2013-09-26 07:53:00
4:04 AM,44.6,44.6,100,30.06,0.5,North,4.6,-,N/A,Fog,Fog,350,2013-09-26 08:04:00
4:12 AM,44.6,44.6,100,30.06,2.5,North,5.8,-,N/A,,Overcast,350,2013-09-26 08:12:00
4:24 AM,44.6,44.6,100,30.06,0.8,NNW,4.6,-,N/A,,Mist,340,2013-09-26 08:24:00
4:48 AM,44.6,42.8,93,30.07,1.2,North,5.8,-,N/A,,Overcast,350,2013-09-26 08:48:00
4:53 AM,45.0,44.1,97,30.07,2.5,North,5.8,-,N/A,,Overcast,350,2013-09-26 08:53:00
5:00 AM,44.6,44.6,100,30.07,10.0,North,5.8,-,N/A,,Overcast,350,2013-09-26 09:00:00
5:43 AM,44.6,44.6,100,30.08,6.0,NW,3.5,-,N/A,,Mostly Cloudy,320,2013-09-26 09:43:00
5:53 AM,45.0,44.1,97,30.09,10.0,NNW,3.5,-,N/A,,Scattered Clouds,330,2013-09-26 09:53:00
6:53 AM,43.0,42.1,97,30.12,10.0,WNW,3.5,-,N/A,,Clear,290,2013-09-26 10:53:00
7:53 AM,43.0,42.1,97,30.13,6.0,Calm,Calm,-,N/A,,Clear,0,2013-09-26 11:53:00
8:20 AM,44.6,42.8,93,30.13,10.0,Calm,Calm,-,N/A,,Scattered Clouds,0,2013-09-26 12:20:00
8:29 AM,44.6,44.6,100,30.13,6.0,Calm,Calm,-,N/A,,Mostly Cloudy,0,2013-09-26 12:29:00
8:53 AM,48.9,46.9,93,30.14,6.0,North,3.5,-,N/A,,Overcast,360,2013-09-26 12:53:00
9:05 AM,50.0,48.2,94,30.13,2.0,North,3.5,-,N/A,,Overcast,350,2013-09-26 13:05:00
9:53 AM,53.1,50.0,89,30.16,10.0,NNW,4.6,-,N/A,,Overcast,340,2013-09-26 13:53:00
10:27 AM,57.2,53.6,88,30.15,10.0,North,3.5,-,N/A,,Overcast,10,2013-09-26 14:27:00
10:53 AM,59.0,55.0,87,30.16,10.0,NNE,4.6,-,N/A,,Overcast,20,2013-09-26 14:53:00
11:40 AM,64.4,55.4,73,30.15,10.0,North,4.6,-,N/A,,Scattered Clouds,350,2013-09-26 15:40:00
11:53 AM,64.0,55.0,73,30.15,10.0,NE,4.6,-,N/A,,Clear,40,2013-09-26 15:53:00
12:53 PM,68.0,54.0,61,30.14,10.0,East,3.5,-,N/A,,Clear,100,2013-09-26 16:53:00
1:53 PM,72.0,51.1,48,30.12,10.0,Variable,3.5,-,N/A,,Clear,0,2013-09-26 17:53:00
2:53 PM,73.9,48.9,41,30.11,10.0,NNE,5.8,-,N/A,,Clear,30,2013-09-26 18:53:00
3:53 PM,73.9,48.9,41,30.11,10.0,NE,9.2,-,N/A,,Clear,40,2013-09-26 19:53:00
4:53 PM,73.9,46.0,37,30.12,10.0,NNE,8.1,-,N/A,,Clear,20,2013-09-26 20:53:00
5:53 PM,72.0,48.0,43,30.12,10.0,ENE,9.2,-,N/A,,Clear,60,2013-09-26 21:53:00
6:53 PM,66.0,51.1,59,30.14,10.0,NE,8.1,-,N/A,,Clear,40,2013-09-26 22:53:00
7:53 PM,60.1,51.1,72,30.15,10.0,NE,5.8,-,N/A,,Clear,40,2013-09-26 23:53:00
8:53 PM,57.0,53.1,87,30.16,10.0,NNE,6.9,-,N/A,,Clear,30,2013-09-27 00:53:00
9:53 PM,55.9,53.1,90,30.16,10.0,NE,6.9,-,N/A,,Clear,50,2013-09-27 01:53:00
10:53 PM,54.0,51.1,90,30.17,10.0,ENE,3.5,-,N/A,,Clear,70,2013-09-27 02:53:00
11:53 PM,52.0,48.9,89,30.17,10.0,ENE,4.6,-,N/A,,Clear,70,2013-09-27 03:53:00